Total_Precipitation_Accumulation
0.76 0.99 1.22 1.48 1.79 2.18 2.36 2.33 2.27 2.41 2.61 2.44 2.22 2.02 1.81 1.64 1.48 1.33 1.20 1.12 1.01 0.92 0.82 0.73 0.71 0.68 0.64 0.62 0.61 0.60 0.57 0.55 0.55 0.57 0.52 0.42 0.38 0.33 0.26 0.24 0.22 0.19 0.18
0.69 0.92 1.12 1.35 1.55 2.00 2.27 2.29 2.34 2.45 2.61 2.48 2.34 2.29 2.23 2.02 1.83 1.70 1.43 1.24 1.12 1.03 0.97 0.87 0.80 0.77 0.76 0.72 0.71 0.72 0.70 0.68 0.70 0.75 0.76 0.63 0.49 0.37 0.30 0.30 0.29 0.27 0.27
0.64 0.80 0.97 1.18 1.28 1.56 1.94 2.11 2.16 2.31 2.42 2.56 2.81 2.81 2.70 2.36 1.92 1.63 1.53 1.44 1.40 1.30 1.16 1.14 1.06 0.91 0.85 0.79 0.76 0.74 0.75 0.75 0.74 0.75 0.86 0.81 0.63 0.48 0.39 0.33 0.29 0.30 0.32
0.62 0.74 0.86 0.97 1.10 1.24 1.57 1.92 2.11 2.23 2.25 2.33 2.56 2.66 2.52 2.18 1.83 1.62 1.63 1.68 1.63 1.59 1.53 1.40 1.35 1.22 1.06 0.94 0.90 0.88 0.88 0.91 0.88 0.84 0.78 0.74 0.68 0.68 0.57 0.42 0.36 0.34 0.34
0.67 0.72 0.77 0.81 0.89 1.04 1.36 1.68 1.91 2.13 2.16 2.10 2.19 2.40 2.48 2.35 2.19 2.01 1.89 1.81 1.75 1.65 1.63 1.59 1.52 1.42 1.31 1.22 1.16 1.10 1.07 1.06 1.02 0.96 0.90 0.88 0.79 0.74 0.76 0.57 0.40 0.41 0.41
0.74 0.74 0.75 0.75 0.81 0.88 1.04 1.34 1.62 1.93 2.11 2.06 2.09 2.17 2.22 2.29 2.21 2.06 2.03 1.93 1.90 1.78 1.64 1.60 1.59 1.53 1.50 1.45 1.42 1.39 1.29 1.22 1.17 1.12 1.05 1.06 1.01 0.87 0.89 0.83 0.62 0.56 0.49
0.67 0.65 0.64 0.64 0.74 0.83 0.89 1.09 1.25 1.51 1.78 1.91 1.95 1.98 2.06 2.11 2.15 2.13 2.09 2.07 1.93 1.78 1.69 1.63 1.64 1.64 1.57 1.55 1.55 1.51 1.40 1.33 1.27 1.24 1.20 1.16 1.10 1.06 1.10 1.13 0.98 0.85 0.69
0.70 0.66 0.63 0.66 0.77 0.81 0.87 0.98 1.08 1.20 1.42 1.62 1.70 1.73 1.86 1.94 1.91 1.98 1.96 1.92 1.85 1.76 1.75 1.74 1.66 1.66 1.64 1.59 1.56 1.52 1.42 1.37 1.33 1.29 1.28 1.25 1.18 1.20 1.24 1.29 1.35 1.25 1.00
0.63 0.65 0.66 0.69 0.75 0.78 0.83 0.92 1.00 1.02 1.13 1.31 1.45 1.56 1.60 1.62 1.58 1.59 1.61 1.64 1.66 1.66 1.62 1.63 1.58 1.52 1.51 1.50 1.51 1.48 1.38 1.34 1.29 1.25 1.24 1.22 1.17 1.19 1.23 1.30 1.45 1.61 1.45
0.62 0.65 0.68 0.66 0.67 0.71 0.75 0.83 0.86 0.86 0.91 1.01 1.09 1.26 1.36 1.36 1.39 1.40 1.37 1.35 1.34 1.37 1.39 1.41 1.40 1.36 1.36 1.35 1.35 1.33 1.32 1.31 1.22 1.17 1.16 1.13 1.09 1.13 1.19 1.27 1.34 1.49 1.60
0.64 0.69 0.72 0.70 0.68 0.72 0.74 0.76 0.72 0.74 0.77 0.84 0.89 0.95 1.07 1.14 1.19 1.21 1.14 1.15 1.11 1.08 1.10 1.08 1.10 1.13 1.15 1.17 1.18 1.17 1.19 1.22 1.18 1.16 1.16 1.15 1.12 1.13 1.13 1.17 1.21 1.27 1.39
0.57 0.62 0.69 0.69 0.68 0.71 0.74 0.77 0.70 0.67 0.69 0.75 0.76 0.78 0.87 0.98 1.03 1.08 1.02 0.97 0.98 0.92 0.91 0.90 0.87 0.87 0.89 0.93 0.95 0.96 1.00 1.05 1.06 1.06 1.09 1.09 1.12 1.15 1.13 1.12 1.11 1.09 1.09
0.51 0.53 0.55 0.61 0.64 0.66 0.69 0.75 0.73 0.66 0.63 0.64 0.64 0.69 0.75 0.83 0.88 0.89 0.92 0.86 0.90 0.84 0.81 0.79 0.77 0.74 0.73 0.76 0.80 0.86 0.89 0.92 0.93 0.94 0.96 0.98 1.02 1.04 1.01 0.99 0.97 0.95 0.97
0.40 0.40 0.44 0.49 0.54 0.58 0.63 0.66 0.69 0.68 0.68 0.64 0.60 0.62 0.66 0.77 0.81 0.77 0.80 0.80 0.85 0.88 0.79 0.74 0.71 0.71 0.71 0.73 0.76 0.83 0.88 0.89 0.89 0.90 0.91 0.89 0.87 0.85 0.85 0.87 0.89 0.96 1.04
0.29 0.31 0.33 0.35 0.41 0.45 0.49 0.54 0.58 0.61 0.65 0.66 0.63 0.61 0.62 0.70 0.76 0.69 0.70 0.72 0.75 0.86 0.86 0.81 0.77 0.74 0.72 0.76 0.81 0.82 0.86 0.87 0.88 0.85 0.82 0.81 0.83 0.80 0.79 0.82 0.86 0.94 1.08
0.20 0.20 0.21 0.23 0.25 0.30 0.35 0.40 0.45 0.50 0.58 0.61 0.62 0.61 0.60 0.63 0.72 0.70 0.68 0.69 0.72 0.81 0.88 0.92 0.90 0.84 0.82 0.93 0.91 0.85 0.85 0.88 0.87 0.83 0.76 0.74 0.78 0.76 0.77 0.80 0.87 1.01 1.15
0.14 0.14 0.14 0.15 0.17 0.20 0.24 0.29 0.33 0.38 0.45 0.53 0.58 0.61 0.63 0.66 0.72 0.73 0.73 0.78 0.84 0.90 0.92 0.97 1.00 0.98 1.00 1.02 0.90 0.88 0.81 0.81 0.82 0.79 0.75 0.70 0.67 0.71 0.66 0.72 0.85 0.94 1.04
0.13 0.15 0.15 0.15 0.15 0.16 0.17 0.19 0.24 0.30 0.35 0.40 0.48 0.52 0.57 0.61 0.64 0.71 0.76 0.81 0.86 0.92 0.96 0.99 0.99 0.96 0.95 0.95 0.84 0.81 0.75 0.75 0.75 0.73 0.70 0.71 0.71 0.70 0.74 0.80 0.86 0.78 0.73
0.12 0.13 0.13 0.13 0.14 0.14 0.15 0.17 0.21 0.27 0.31 0.38 0.46 0.51 0.59 0.62 0.65 0.72 0.74 0.78 0.85 0.88 0.86 0.86 0.88 0.88 0.88 0.85 0.77 0.73 0.68 0.69 0.66 0.64 0.62 0.63 0.65 0.77 0.93 0.98 0.97 0.80 0.64
0.11 0.12 0.12 0.14 0.15 0.17 0.19 0.21 0.25 0.29 0.32 0.39 0.46 0.49 0.58 0.67 0.71 0.73 0.72 0.70 0.75 0.81 0.77 0.73 0.72 0.71 0.73 0.75 0.71 0.68 0.64 0.66 0.63 0.59 0.58 0.63 0.65 0.77 0.92 0.90 0.95 0.89 0.74
0.12 0.12 0.13 0.15 0.20 0.25 0.27 0.28 0.32 0.36 0.38 0.39 0.44 0.44 0.48 0.54 0.58 0.60 0.61 0.62 0.63 0.65 0.61 0.58 0.58 0.56 0.57 0.61 0.59 0.58 0.56 0.59 0.60 0.56 0.51 0.51 0.68 0.79 0.84 0.81 0.74 0.83 0.91
0.15 0.14 0.16 0.17 0.19 0.26 0.33 0.34 0.33 0.34 0.34 0.34 0.38 0.39 0.42 0.45 0.47 0.49 0.52 0.54 0.52 0.52 0.50 0.47 0.47 0.46 0.46 0.50 0.51 0.53 0.55 0.60 0.56 0.51 0.47 0.50 0.65 0.67 0.67 0.67 0.73 0.88 0.89
0.15 0.14 0.14 0.15 0.17 0.21 0.27 0.34 0.34 0.33 0.32 0.33 0.36 0.35 0.35 0.36 0.40 0.41 0.43 0.43 0.42 0.41 0.41 0.40 0.38 0.39 0.40 0.46 0.53 0.54 0.59 0.61 0.56 0.50 0.55 0.58 0.59 0.56 0.56 0.66 0.78 0.78 0.71
0.13 0.14 0.13 0.15 0.18 0.19 0.21 0.25 0.27 0.28 0.29 0.29 0.31 0.33 0.34 0.32 0.31 0.33 0.36 0.38 0.39 0.39 0.38 0.38 0.36 0.35 0.37 0.40 0.44 0.51 0.54 0.55 0.56 0.57 0.57 0.54 0.53 0.54 0.56 0.62 0.64 0.65 0.74
0.13 0.15 0.14 0.15 0.16 0.16 0.17 0.17 0.18 0.20 0.24 0.26 0.27 0.27 0.28 0.29 0.29 0.28 0.31 0.35 0.37 0.42 0.46 0.46 0.44 0.42 0.40 0.41 0.50 0.55 0.54 0.56 0.58 0.59 0.53 0.50 0.50 0.49 0.50 0.54 0.56 0.61 0.75
0.14 0.15 0.14 0.14 0.15 0.15 0.16 0.16 0.16 0.18 0.20 0.22 0.24 0.25 0.26 0.26 0.27 0.27 0.27 0.30 0.33 0.38 0.43 0.48 0.49 0.46 0.46 0.49 0.52 0.53 0.57 0.61 0.62 0.61 0.54 0.51 0.51 0.52 0.53 0.56 0.59 0.64 0.75